Location: Saluda
(35.2377°N, 82.3468°W)
Time: 16:39:13
(UTC+00:00)

Explorer 11/Cluster Stage 4 - Pass Details

Date: 09 October 2022
Orbit: 466 x 1247 km, 28.8° (Epoch: 08 December)

Event Time Altitude Azimuth Distance (km) Brightness Sun altitude
Rises 15:55:42 0° 257° (WSW) 4,053 10.1 44.2°
Reaches altitude 10° 15:58:32 10° 253° (WSW) 3,149 9.7 44.5°
Maximum altitude 16:06:22 55° 179° (S) 1,467 9.8 45.2°
Drops below altitude 10° 16:14:10 10° 104° (ESE) 3,137 10.2 45.8°
Sets 16:17:00 0° 100° (E) 4,037 10.5 46.0°
